Location: Ch�risy
(50.2331°N, 2.9131°E)
Time: 02:05:26
(UTC+00:00)

USA 229 - Pass Details

Date: 17 January 2021
Orbit: 964 x 1248 km, 63.4° (Epoch: 23 February)

Event Time Altitude Azimuth Distance (km) Brightness Sun altitude
Rises 18:11:11 0° 309° (NW) 3,868 7.2 -17.6°
Reaches altitude 10° 18:14:01 10° 317° (NW) 2,954 6.4 -18.1°
Maximum altitude 18:20:32 38° 25° (NNE) 1,692 4.5 -19.1°
Enters shadow 18:23:12 29° 64° (ENE) 1,991 4.6 -19.5°
